Stanley, ND

8:46 AM CST on December 04, 2016 (GMT -0600)
Stanley

Weather History for K08D - November, 2013

Change the Weather History Date:

Monday, November 25, 2013

  Actual Average (KMOT) Record (KMOT)
Temperature  
Mean Temperature 21 °F 23 °F  
Max Temperature 28 °F 31 °F 67 °F (1914)
Min Temperature 10 °F 15 °F -12 °F (1996)
Degree Days  
Heating Degree Days 44 42  
Month to date heating degree days 881  
Since 1 July heating degree days 1841  
Moisture  
Dew Point 21 °F    
Average Humidity 89    
Maximum Humidity 100    
Minimum Humidity 80    
Precipitation  
Precipitation 0.00 in 0.02 in 0.70 in (1908)
Month to date precipitation 0.67  
Year to date precipitation 16.73  
Sea Level Pressure  
Sea Level Pressure 30.13 in    
Wind  
Wind Speed 17 mph (NW)    
Max Wind Speed 25 mph    
Max Gust Speed 39 mph    
Visibility 10 miles    
Events Rain    
T = Trace of Precipitation, MM = Missing Value Source: NWS Daily Summary

Daily Weather History Graph

Daily Weather History Graph

Search for Another Location

Airport or City:

Trip Planner

Search our weather history database for the weather conditions in past years. The results will help you decide how hot, cold, wet, or windy it might be!

Date:

Astronomy

Nov. 25, 2013 Rise Set
Actual Time 8:12 AM CST 5:01 PM CST
Civil Twilight 7:36 AM CST 5:36 PM CST
Nautical Twilight 6:57 AM CST 6:15 PM CST
Astronomical Twilight 6:20 AM CST 6:52 PM CST
Moon No Moon Rise 1:11 PM CST (11/25)
Length of Visible Light 9h 59m
Length of Day
8h 49m
Waning Gibbous, 51% of the Moon is Illuminated
Nov 25
Waning Gibbous
Nov 25
Last Quarter
Dec 2
New
Dec 9
First Quarter
Dec 17
Full

Hourly Weather History & Observations

Time (CST) Temp. Windchill Dew Point Humidity Pressure Visibility Wind Dir Wind Speed Gust Speed Precip Events Conditions
12:15 AM 28.4 °F 16.6 °F 24.8 °F 86% 29.96 in 10.0 mi WNW 16.1 mph 20.7 mph N/A   Clear
12:35 AM 28.4 °F 16.6 °F 24.8 °F 86% 29.96 in 10.0 mi WNW 16.1 mph 21.9 mph N/A   Clear
12:55 AM 28.4 °F 17.0 °F 24.8 °F 86% 29.97 in 10.0 mi WNW 15.0 mph 19.6 mph N/A   Clear
1:15 AM 26.6 °F 15.2 °F 24.8 °F 93% 29.97 in 10.0 mi WNW 13.8 mph - N/A   Clear
1:35 AM 26.6 °F 14.7 °F 24.8 °F 93% 29.97 in 10.0 mi WNW 15.0 mph 20.7 mph N/A   Clear
2:15 AM 26.6 °F 14.7 °F 24.8 °F 93% 29.97 in 10.0 mi WNW 15.0 mph - N/A   Clear
2:35 AM 26.6 °F 14.3 °F 24.8 °F 93% 29.98 in 10.0 mi WNW 16.1 mph - N/A   Clear
2:55 AM 24.8 °F 11.9 °F 24.8 °F 100% 29.98 in 10.0 mi NW 16.1 mph 21.9 mph N/A   Clear
3:15 AM 26.6 °F 13.8 °F 24.8 °F 93% 29.99 in 10.0 mi NW 17.3 mph 21.9 mph N/A   Clear
3:35 AM 26.6 °F 14.3 °F 23.0 °F 86% 30.00 in 10.0 mi NW 16.1 mph 23.0 mph N/A   Clear
3:55 AM 24.8 °F 12.4 °F 23.0 °F 93% 30.00 in 10.0 mi NW 15.0 mph 20.7 mph N/A   Clear
4:15 AM 24.8 °F 12.4 °F 23.0 °F 93% 30.01 in 10.0 mi NW 15.0 mph - N/A   Clear
4:35 AM 24.8 °F 12.4 °F 23.0 °F 93% 30.01 in 10.0 mi NW 15.0 mph 21.9 mph N/A   Clear
4:55 AM 24.8 °F 11.9 °F 23.0 °F 93% 30.00 in 10.0 mi NW 16.1 mph 23.0 mph N/A   Clear
5:15 AM 21.2 °F 8.3 °F 19.4 °F 93% 30.01 in 10.0 mi WNW 13.8 mph - N/A   Clear
5:35 AM 19.4 °F 5.5 °F 19.4 °F 100% 30.02 in 10.0 mi WNW 15.0 mph - N/A   Clear
5:55 AM 23.0 °F 9.6 °F 21.2 °F 93% 30.02 in 10.0 mi WNW 16.1 mph 23.0 mph N/A   Clear
6:15 AM 23.0 °F 9.2 °F 21.2 °F 93% 30.03 in 10.0 mi WNW 17.3 mph 23.0 mph N/A   Clear
6:35 AM 23.0 °F 8.0 °F 21.2 °F 93% 30.03 in 10.0 mi NW 20.7 mph 27.6 mph N/A   Clear
6:55 AM 23.0 °F 7.6 °F 21.2 °F 93% 30.03 in 10.0 mi WNW 21.9 mph 28.8 mph N/A   Clear
7:15 AM 23.0 °F 8.3 °F 21.2 °F 93% 30.04 in 10.0 mi NW 19.6 mph 28.8 mph N/A   Clear
7:35 AM 24.8 °F 10.7 °F 21.2 °F 86% 30.05 in 10.0 mi NW 19.6 mph 26.5 mph N/A   Clear
7:55 AM 24.8 °F 11.1 °F 21.2 °F 86% 30.05 in 10.0 mi NW 18.4 mph 26.5 mph N/A   Clear
8:15 AM 24.8 °F 11.5 °F 21.2 °F 86% 30.07 in 10.0 mi NW 17.3 mph 27.6 mph N/A   Clear
8:35 AM 24.8 °F 11.1 °F 21.2 °F 86% 30.08 in 10.0 mi NW 18.4 mph 27.6 mph N/A   Clear
8:55 AM 24.8 °F 11.9 °F 21.2 °F 86% 30.08 in 10.0 mi NW 16.1 mph 21.9 mph N/A   Clear
9:15 AM 24.8 °F 11.5 °F 21.2 °F 86% 30.08 in 10.0 mi NW 17.3 mph 24.2 mph N/A   Clear
9:35 AM 24.8 °F 11.5 °F 21.2 °F 86% 30.10 in 10.0 mi NW 17.3 mph 24.2 mph N/A   Clear
9:55 AM 24.8 °F 11.9 °F 21.2 °F 86% 30.11 in 10.0 mi NW 16.1 mph 23.0 mph N/A   Mostly Cloudy
10:15 AM 26.6 °F 12.4 °F 21.2 °F 80% 30.11 in 10.0 mi NW 21.9 mph 27.6 mph N/A   Overcast
10:35 AM 26.6 °F 13.1 °F 23.0 °F 86% 30.11 in 10.0 mi NW 19.6 mph 26.5 mph N/A   Overcast
10:55 AM 26.6 °F 14.7 °F 23.0 °F 86% 30.12 in 10.0 mi NW 15.0 mph 27.6 mph N/A   Overcast
11:15 AM 26.6 °F 13.1 °F 23.0 °F 86% 30.12 in 10.0 mi NW 19.6 mph 27.6 mph N/A   Overcast
11:35 AM 26.6 °F 13.8 °F 23.0 °F 86% 30.12 in 10.0 mi NW 17.3 mph 28.8 mph N/A   Overcast
11:55 AM 26.6 °F 13.1 °F 23.0 °F 86% 30.13 in 10.0 mi NW 19.6 mph 27.6 mph N/A   Overcast
12:15 PM 26.6 °F 13.8 °F 23.0 °F 86% 30.13 in 10.0 mi NW 17.3 mph 27.6 mph N/A   Overcast
12:35 PM 26.6 °F 12.7 °F 23.0 °F 86% 30.13 in 10.0 mi NW 20.7 mph 27.6 mph N/A   Overcast
12:55 PM 26.6 °F 13.8 °F 23.0 °F 86% 30.14 in 10.0 mi NW 17.3 mph 26.5 mph N/A   Overcast
1:15 PM 26.6 °F 13.8 °F 23.0 °F 86% 30.15 in 10.0 mi NW 17.3 mph 25.3 mph N/A   Overcast
1:35 PM 26.6 °F 13.8 °F 23.0 °F 86% 30.15 in 10.0 mi NW 17.3 mph 24.2 mph N/A   Overcast
1:55 PM 26.6 °F 14.7 °F 23.0 °F 86% 30.15 in 10.0 mi NW 15.0 mph 26.5 mph N/A   Overcast
2:15 PM 26.6 °F 13.4 °F 23.0 °F 86% 30.15 in 10.0 mi NW 18.4 mph 25.3 mph N/A   Overcast
2:35 PM 26.6 °F 14.7 °F 23.0 °F 86% 30.15 in 10.0 mi NW 15.0 mph 21.9 mph N/A   Overcast
2:55 PM 26.6 °F 13.4 °F 23.0 °F 86% 30.16 in 10.0 mi NW 18.4 mph 27.6 mph N/A   Overcast
3:15 PM 26.6 °F 12.7 °F 23.0 °F 86% 30.16 in 10.0 mi NW 20.7 mph 28.8 mph N/A   Overcast
3:35 PM 26.6 °F 12.7 °F 23.0 °F 86% 30.17 in 10.0 mi NW 20.7 mph 28.8 mph N/A   Overcast
3:55 PM 24.8 °F 12.4 °F 23.0 °F 93% 30.17 in 10.0 mi NNW 15.0 mph 25.3 mph N/A Rain Light Freezing Rain
4:15 PM 24.8 °F 10.7 °F 21.2 °F 86% 30.18 in 10.0 mi NNW 19.6 mph 31.1 mph N/A   Overcast
4:35 PM 24.8 °F 11.5 °F 23.0 °F 93% 30.19 in 10.0 mi NW 17.3 mph 25.3 mph N/A   Overcast
4:55 PM 24.8 °F 10.3 °F 23.0 °F 93% 30.20 in 10.0 mi NNW 20.7 mph 27.6 mph N/A Rain Light Freezing Rain
5:15 PM 24.8 °F 11.5 °F 23.0 °F 93% 30.20 in 10.0 mi NW 17.3 mph 23.0 mph N/A Rain Light Freezing Rain
5:35 PM 24.8 °F 11.9 °F 23.0 °F 93% 30.20 in 10.0 mi NW 16.1 mph 23.0 mph N/A Rain Light Freezing Rain
5:55 PM 24.8 °F 12.4 °F 23.0 °F 93% 30.20 in 10.0 mi NW 15.0 mph 25.3 mph N/A Rain Light Freezing Rain
6:15 PM 24.8 °F 12.9 °F 23.0 °F 93% 30.21 in 10.0 mi NW 13.8 mph 21.9 mph N/A Rain Light Freezing Rain
6:35 PM 24.8 °F 12.9 °F 23.0 °F 93% 30.22 in 10.0 mi NW 13.8 mph 20.7 mph N/A   Overcast
6:55 PM 23.0 °F 8.7 °F 23.0 °F 100% 30.22 in 10.0 mi NW 18.4 mph 26.5 mph N/A   Overcast
7:15 PM 23.0 °F 10.1 °F 19.4 °F 86% 30.23 in 10.0 mi NW 15.0 mph 25.3 mph N/A   Overcast
7:35 PM 23.0 °F 7.2 °F 19.4 °F 86% 30.23 in 10.0 mi NW 23.0 mph 31.1 mph N/A   Overcast
7:55 PM 23.0 °F 9.2 °F 19.4 °F 86% 30.23 in 10.0 mi NNW 17.3 mph 24.2 mph N/A   Overcast
8:15 PM 23.0 °F 7.6 °F 19.4 °F 86% 30.23 in 10.0 mi NNW 21.9 mph 31.1 mph N/A   Overcast
8:35 PM 23.0 °F 7.2 °F 17.6 °F 80% 30.24 in 10.0 mi NW 23.0 mph 33.4 mph N/A   Overcast
8:55 PM 21.2 °F 4.2 °F 15.8 °F 80% 30.24 in 10.0 mi NNW 25.3 mph 39.1 mph N/A   Mostly Cloudy
9:15 PM 17.6 °F 1.3 °F 14.0 °F 86% 30.25 in 10.0 mi NNW 19.6 mph 27.6 mph N/A   Clear
9:35 PM 15.8 °F -1.5 °F 14.0 °F 93% 30.27 in 10.0 mi NNW 20.7 mph 27.6 mph N/A   Clear
9:55 PM 15.8 °F -0.6 °F 12.2 °F 86% 30.28 in 10.0 mi NNW 18.4 mph 26.5 mph N/A   Clear
10:15 PM 15.8 °F -0.6 °F 12.2 °F 86% 30.29 in 10.0 mi NNW 18.4 mph - N/A   Clear
10:35 PM 14.0 °F -0.8 °F 12.2 °F 93% 30.30 in 10.0 mi NNW 13.8 mph 19.6 mph N/A   Partly Cloudy
10:55 PM 14.0 °F 0.5 °F 12.2 °F 93% 30.31 in 10.0 mi NNW 11.5 mph - N/A   Mostly Cloudy
11:15 PM 14.0 °F 1.2 °F 10.4 °F 86% 30.31 in 10.0 mi NNW 10.4 mph - N/A   Partly Cloudy
11:35 PM 14.0 °F 2.0 °F 10.4 °F 86% 30.31 in 10.0 mi NNW 9.2 mph - N/A   Scattered Clouds
11:55 PM 10.4 °F -0.4 °F 10.4 °F 100% 30.31 in 10.0 mi NNW 6.9 mph - N/A   Mostly Cloudy